Home > Weather > Aurillac > Past weeks

Flag for France Past Weather in Aurillac, Auvergne, France — Yesterday and Last 2 Weeks

Now
51 °F

Light rain. Low clouds.


Feels Like: 48 °F
Forecast: 50 / 56 °F
Wind: 9 mph from West

Location: Aurillac

Current Time: May 31, 2016 at 2:13:08 AM

Latest Report: May 31, 2016 at 1:00 AM


Visibility: 7 mi

Pressure: 30.00 "Hg (27.82 "Hg at 627m altitude)

Humidity: 96%

Dew Point: 50 °F

Location of AurillacLocation

Past Weather in Aurillac — Graph

°F

Aurillac Temperature Yesterday

Maximum temperature yesterday: 59 °F (at 1:00 PM)
Minimum temperature yesterday: 50 °F (at 5:00 AM)
Average temperature yesterday: 53 °F

High & Low Weather Summary for the Past Weeks

 TemperatureHumidityPressure
High77 °F (May 21, 4:00 PM)100% (May 24, 7:00 AM)30.28 "Hg (May 24, 7:00 AM)
Low34 °F (May 16, 6:00 AM)38% (May 21, 1:00 PM)29.69 "Hg (May 28, 6:00 PM)
Average55 °F74%30.00 "Hg
* Reported May 16 1:00 AM — May 31 1:00 AM, Aurillac, Weather by CustomWeather, © 2016

Note: Actual official high and low records may vary slightly from our data, if they occured in-between our weather recording intervals... More about our weather records

Advertising

Aurillac Weather History for the Previous 24 Hours

Scroll right to see more
 ConditionsComfort  
Time TempWeatherWind HumidityBarometerVisibility
1:00 AM
Tue, May 31
51 °FLight rain. Low clouds.9 mph96%30.00 "Hg7 mi
12:00 AM51 °FDrizzle. Low clouds.5 mph97%30.00 "Hg8 mi
11:00 PM
Mon, May 30
51 °FLow clouds.6 mph98%30.00 "Hg9 mi
10:00 PM51 °FDrizzle. Low clouds.6 mph97%29.98 "Hg5 mi
9:00 PM52 °FOvercast.13 mph93%29.97 "Hg11 mi
8:00 PM54 °FOvercast.7 mph91%29.96 "Hg31 mi
7:00 PM54 °FLight rain. Overcast.13 mph87%29.95 "Hg7 mi
6:00 PM55 °FOvercast.8 mph83%29.95 "Hg34 mi
5:00 PM55 °FOvercast.12 mph91%29.95 "Hg22 mi
4:00 PM57 °FOvercast.7 mph85%29.93 "Hg9 mi
3:00 PM55 °FRain. Overcast.7 mph90%29.94 "Hg4 mi
1:00 PM59 °FPartly sunny.10 mph71%29.93 "Hg31 mi
12:00 PM55 °FOvercast.12 mph81%29.95 "Hg12 mi
11:00 AM53 °FOvercast.9 mph83%29.96 "Hg12 mi
10:00 AM52 °FOvercast.10 mph89%29.96 "Hg25 mi
9:00 AM52 °FOvercast.10 mph90%29.95 "Hg12 mi
8:00 AM51 °FOvercast.12 mph93%29.94 "Hg12 mi
7:00 AM50 °FOvercast.9 mph93%29.94 "Hg9 mi
6:00 AM50 °FRain. Overcast.8 mph95%29.94 "Hg9 mi
5:00 AM50 °FDrizzle. Overcast.7 mph96%29.95 "Hg7 mi
4:00 AM50 °FOvercast.7 mph93%29.95 "Hg37 mi
3:00 AM51 °FOvercast.8 mph94%29.96 "Hg7 mi
2:00 AM51 °FOvercast.8 mph92%29.96 "Hg37 mi
Weather by CustomWeather, © 2016

See weather overviewHow to use our weather pages